Regional Weather Roundup
Issued by NWS San Angelo, TX

Home | Current Version | Previous Version | Graphics & Text | Print | Product List | Glossary Off
Versions: 1 2 3 4 5 6 7 8 9 10 11 12 13 14 15 16 17 18 19 20 21 22 23 24 25 26 27 28 29 30 31 32 33 34 35 36 37 38 39 40 41 42 43 44 45 46 47 48 49 50

000
ASUS44 KSJT 030610
RWRSJT
WEST CENTRAL TEXAS REGIONAL WEATHER ROUNDUP
NATIONAL WEATHER SERVICE SAN ANGELO TX
1200 AM CST SAT DEC 03 2016

NOTE: "FAIR" INDICATES FEW OR NO CLOUDS BELOW 12,000 FEET WITH NO
SIGNIFICANT WEATHER AND/OR OBSTRUCTIONS TO VISIBILITY.

TXZ049-054-064>066-071>073-076>078-098-099-113-114-127-128-139-140-
154-155-168>170-030700
...LOCATIONS ACROSS WEST CENTRAL TEXAS...

CITY           SKY/WX    TMP DP  RH WIND       PRES   REMARKS
SAN ANGELO     LGT RAIN  49  47  93 E15       30.00F
ABILENE        LGT RAIN  47  47 100 NE8       30.07F
DYESS AFB      CLOUDY    47  46  93 N6        30.07S
JUNCTION       CLOUDY    50  48  93 NE12      29.99S
SWEETWATER     CLOUDY    46  46 100 E13       30.09S
BROWNWOOD      CLOUDY    50  43  76 E8        30.07R
COLEMAN        CLOUDY    50  45  83 NE9       30.06F
SONORA         CLOUDY    55  54  94 E9        30.01F
OZONA          CLOUDY    54  54 100 E9        30.00R
BRADY          NOT AVBL
$$

TEXAS PANHANDLE/OKLAHOMA PANHANDLE

CITY           SKY/WX    TMP DP  RH WIND       PRES   REMARKS
AMARILLO       MIX PCPN  35  35 100 NE12      30.17S FOG     WCI  27
BORGER         CLOUDY    34  34 100 NE9       30.19F WCI  27
CANADIAN       DRIZZLE   38  37  94 NE8       30.21F WCI  33
DALHART        LGT SNOW  32  31  96 NE10      30.22F FOG     WCI  24
DUMAS          LGT SNOW  32  31  96 NE8       30.20S WCI  25
GUYMON         NOT AVBL
HEREFORD       CLOUDY    37  37  99 NE10      30.16S FOG     WCI  30
PAMPA          CLOUDY    37  35  94 E16       30.18S WCI  27
PERRYTON       CLOUDY    35  34  96 E10       30.21F WCI  27
$$

SOUTHERN PANHANDLE/SOUTH PLAINS/ROLLING PLAINS

CITY           SKY/WX    TMP DP  RH WIND       PRES   REMARKS
LUBBOCK        DRIZZLE   39  38  96 NE16G23   30.09R WCI  30
SNYDER         LGT RAIN  46  44  96 E15G21    30.07F WCI  39
CHILDRESS      LGT RAIN  43  41  93 NE10      30.17S FOG     WCI  37
SEMINOLE       RAIN      40  40 100 NE10      30.07R WCI  34
$$

PERMIAN BASIN

CITY           SKY/WX    TMP DP  RH WIND       PRES   REMARKS
MIDLAND        LGT RAIN  44  42  93 NE13      30.02R FOG     WCI  38
ODESSA         LGT RAIN  44  41  89 NE12      30.02R FOG     WCI  38
WINK           LGT RAIN  44  44 100 NE15      29.98F WCI  37
$$

FAR WEST/SOUTHWEST MOUNTAINS/TRANS PECOS

CITY           SKY/WX    TMP DP  RH WIND       PRES   REMARKS
ALPINE         CLOUDY    43  41  92 CALM      30.06R
DRYDEN           N/A     58  57  97 E15G22    29.91S
EL PASO        MOCLDY    49  33  54 NE15      29.93R
FORT STOCKTON  LGT RAIN  47  47 100 N8        29.98F FOG
GUADALUPE PASS NOT AVBL
MARFA          LGT RAIN  43  42  97 N8        29.98F WCI  38
PECOS          LGT RAIN  46  44  95 N10       30.03R
$$

DALLAS/FORT WORTH METROPLEX

CITY           SKY/WX    TMP DP  RH WIND       PRES   REMARKS
DFW AIRPORT    CLOUDY    57  37  47 E7        30.13S
FTW MEACHAM    CLOUDY    55  43  63 NE6       30.13R
DAL-EXECUTIVE  CLOUDY    55  39  54 E9        30.11F
GRAND PRAIRIE  CLOUDY    56  37  48 E6        30.15R
ADDISON        CLOUDY    56  42  59 E3        30.16R
MESQUITE       CLOUDY    55  37  50 E6        30.13F
LANCASTER      CLOUDY    56  38  52 E8        30.13F
$$

NORTH CENTRAL TEXAS

CITY           SKY/WX    TMP DP  RH WIND       PRES   REMARKS
SHRMAN/DENISON DRIZZLE   49  46  89 NE8       30.18R
GAINESVILLE    DRIZZLE   48  44  88 N8        30.18F
BRIDGEPORT     CLOUDY    49  46  90 NE5       30.17R
DENTON         CLOUDY    50  44  80 NE6       30.15R
WAXAHACHIE     CLOUDY    53  41  62 CALM      30.14R
GRANBURY       CLOUDY    56  40  55 E8        30.13S
$$

WESTERN NORTH TEXAS

CITY           SKY/WX    TMP DP  RH WIND       PRES   REMARKS
WICHITA FALLS  CLOUDY    48  44  86 E9        30.17F
VERNON         CLOUDY    49  44  83 E9        30.18S
BRECKENRIDGE   CLOUDY    49  47  91 NE9       30.10F
COMANCHE       CLOUDY    50  45  84 E13       30.08S
$$

CENTRAL AND SOUTH CENTRAL TEXAS

CITY           SKY/WX    TMP DP  RH WIND       PRES   REMARKS
AUSTIN/BERGSTM CLOUDY    52  50  93 NE9       30.04R
WACO           CLOUDY    49  47  93 E7        30.10
HILLSBORO      LGT RAIN  51  44  75 SE6       30.12R
TEMPLE         LGT RAIN  48  47  96 NE14      30.08F
KILLEEN-GRAY   LGT RAIN  48  46  93 E12       30.06R FOG
FORT HOOD      LGT RAIN  48  46  93 E8        30.04S
GEORGETOWN     CLOUDY    50  46  87 NE9       30.07R
LAGO VISTA     RAIN      50  49  96 E16       30.03F
SAN MARCOS     CLOUDY    52  48  87 NE14      30.02F
NEW BRAUNFELS  LGT RAIN  53  50  89 NE12      29.99F FOG
RANDOLPH AFB   LGT RAIN  52  52 100 NE14      29.96F FOG
SAN ANTONIO    RAIN      52  49  89 NE15G24   29.93F
STINSON        RAIN      53  49  86 E16G25    29.91F
PLEASANTON     NOT AVBL
LA GRANGE      CLOUDY    56  53  92 E7        30.00F
GIDDINGS       CLOUDY    51  51  97 E10G20    30.06F FOG
$$

EAST TEXAS

CITY           SKY/WX    TMP DP  RH WIND       PRES   REMARKS
PARIS          CLOUDY    52  39  62 NE12      30.18F
CLARKSVILLE    NOT AVBL
TYLER          LGT RAIN  50  44  80 E9        30.17R
LONGVIEW       LGT RAIN  50  45  83 E7        30.15R
PALESTINE      FLURRIES  48  47  96 NE7G16    30.15S
NACOGDOCHES    CLOUDY    48  45  87 E15       30.14F
$$

TEXAS HILL COUNTRY AND EDWARDS PLATEAU

CITY           SKY/WX    TMP DP  RH WIND       PRES   REMARKS
LLANO          CLOUDY    50  50 100 E7        30.07F FOG
HORSESHOE BAY  CLOUDY    50  49  97 E5        30.03F FOG
KERRVILLE      CLOUDY    51  50  95 NE9       29.98F FOG
FREDERICKSBRG  CLOUDY    48  47  94 E8        30.00F FOG
ROCKSPRINGS    LGT RAIN  55  54  94 E9        29.96F
HONDO          RAIN      53  52  96 E15       29.93F
UVALDE         CLOUDY    55  52  90 E20G29    29.92F
DEL RIO        NOT AVBL
$$

SOUTHEAST TEXAS

CITY           SKY/WX    TMP DP  RH WIND       PRES   REMARKS
COLLEGE STN    NOT AVBL
CALDWELL       NOT AVBL
CROCKETT       LGT RAIN  48  46  93 E12G23    30.11F
BRENHAM        RAIN      53  51  94 NE7       30.05R
HUNTSVILLE     LGT RAIN  50  47  89 E10       30.05F
CONROE         LGT RAIN  50  48  93 NE10      30.05F
HOUSTON BUSH   NOT AVBL
HOUSTON HOBBY  CLOUDY    58  51  78 NE17G23   29.99F
PERLAND        CLOUDY    61  53  75 E15       29.99F
WHARTON        CLOUDY    58  51  77 NE14      29.97F
$$

THE UPPER TEXAS COAST

CITY           SKY/WX    TMP DP  RH WIND       PRES   REMARKS
ORANGE         CLOUDY    58  37  47 E20G26    30.07S
PORT ARTHUR    NOT AVBL
GALVESTON      LGT RAIN  67  63  87 E20G28    29.95F
ANGLETON       NOT AVBL
BAY CITY       LGT RAIN  62  62  98 NE12      29.94F
$$

TEXAS COASTAL BEND, RIO GRANDE PLAINS DEEP SOUTH TEXAS

CITY           SKY/WX    TMP DP  RH WIND       PRES   REMARKS
VICTORIA       CLOUDY    58  55  90 NE9       29.95F
BEEVILLE       CLOUDY    61  61 100 NE12G17   29.93R
ROCKPORT       NOT AVBL
PORT ARANSAS   CLOUDY    68  67  95 NE13      29.88S FOG
PORT LAVACA    NOT AVBL
CORPUS CHRISTI CLOUDY    68  66  93 NE13      29.88F
KINGSVILLE NAS CLOUDY    71  70  96 NE9       29.87F
COTULLA        NOT AVBL
LAREDO         NOT AVBL
BROWNSVILLE    PTCLDY    76  72  87 SE10      29.87F
PORT ISABEL    PTCLDY    75  73  93 S8        29.86F
HEBBRONVILLE   LGT RAIN  67  66  97 E6        29.88F
MCALLEN        MOCLDY    77  71  82 SE13      29.85F
WESLACO        CLOUDY    74  72  91 SE7       29.84F
FALFURRIAS     CLOUDY    72  70  94 NE3       29.87S
EDINBURG       CLOUDY    76  72  88 SE5       29.85F
$$



USA.gov is the U.S. government's official web portal to all federal, state and local government web resources and services.